Regional Weather Roundup
Issued by NWS

Home | Current Version | Previous Version | Text Only | Print | Product List | Glossary Off
Versions: 1 2 3 4 5 6 7 8 9 10 11 12 13 14 15 16 17 18 19 20 21 22 23 24 25 26 27 28 29 30 31 32 33 34 35 36 37 38 39 40 41 42 43 44 45 46 47 48 49 50

469
ASUS44 KJAN 290210
RWRMS

MISSISSIPPI HOURLY WEATHER ROUNDUP
NATIONAL WEATHER SERVICE JACKSON MS
900 PM CDT SAT MAR 28 2015

NOTE: "FAIR: INDICATES FEW OR NO CLOUDS BELOW 12,000 FEET WITH NO
SIGNIFICANT WEATHER AND/OR OBSTRUCTIONS TO VISIBILITY.

MSZ001>002-007>008-010>013-018>021-025>028-034>036-290300-
NORTHWEST MISSISSIPPI

CITY           SKY/WX    TMP DP  RH WIND       PRES   REMARKS
CLARKSDALE     FAIR      39  32  75 CALM      30.33R
CLEVELAND      FAIR      42  36  80 NE10      30.29R
GREENWOOD      CLEAR     41  30  65 NE5       30.30R
GREENVILLE     CLEAR     44  32  62 E12       30.27R
OLIVE BRANCH   CLOUDY    39  32  75 CALM      30.32R
OXFORD         CLOUDY    37  32  81 CALM      30.33R
TUNICA         CLOUDY    41  32  70 CALM      30.33R
$$

MSZ003>006-009-014>017-022>024-029>033-037>039-290300-
NORTHEAST MISSISSIPPI

CITY           SKY/WX    TMP DP  RH WIND       PRES   REMARKS
COLUMBUS AFB   CLOUDY    42  29  61 NW3       30.30R
CORINTH        CLOUDY    43  28  56 CALM      30.30R
GOLDN TRIANGLE CLOUDY    43  30  61 CALM      30.30R
STARKVILLE     FAIR      39  32  75 CALM      30.32R
TUPELO         CLOUDY    41  30  65 NW3       30.31R
$$

MSZ040-058-290300-
CENTRAL MISSISSIPPI

CITY           SKY/WX    TMP DP  RH WIND       PRES   REMARKS
JACKSON INTL   PTCLDY    48  33  56 NE7       30.25R
JACKSON HAWKNS CLEAR     49  33  54 E8G18     30.24R
MERIDIAN KEY   CLEAR     41  33  73 NE6       30.28S
MERIDIAN NAS   NOT AVBL
RAYMOND        FAIR      50  46  87 VRB7G15   30.23R
VICKSBURG      LGT RAIN  53  35  50 E15       30.21R
$$

MSZ059>079-290300-
SOUTH MISSISSIPPI

CITY           SKY/WX    TMP DP  RH WIND       PRES   REMARKS
BROOKHAVEN     FAIR      54  39  58 E3        30.22R
HATTIESBURG    CLEAR     52  37  56 E3        30.25R
MCCOMB         CLEAR     58  44  60 E7        30.19R
NATCHEZ        CLEAR     57  43  58 NE6       30.17R
PINE BELT      CLEAR     48  34  57 E8        30.25R
$$

MSZ080>082-290300-
COASTAL MISSISSIPPI

CITY           SKY/WX    TMP DP  RH WIND       PRES   REMARKS
BAY ST LOUIS   CLEAR     54  43  66 CALM      30.22R
BILOXI         CLEAR     59  44  56 S7        30.23R
PASCAGOULA     CLEAR     49  47  93 CALM      30.25R
GULFPORT       CLEAR     55  46  71 S5        30.23R
$$



USA.gov is the U.S. government's official web portal to all federal, state and local government web resources and services.